PST,Max TemperatureF,Mean TemperatureF,Min TemperatureF,Max Dew PointF,MeanDew PointF,Min DewpointF,Max Humidity, Mean Humidity, Min Humidity, Max Sea Level PressureIn, Mean Sea Level PressureIn, Min Sea Level PressureIn, Max VisibilityMiles, Mean VisibilityMiles, Min VisibilityMiles, Max Wind SpeedMPH, Mean Wind SpeedMPH, Max Gust SpeedMPH,PrecipitationIn, CloudCover, Events, WindDirDegrees
2012-12-1,52,49,46,48,46,43,100,89,77,29.80,29.63,29.33,10,10,4,30,10,41,1.06,8,Rain,176
2012-12-2,52,47,41,48,45,40,100,87,74,30.01,29.67,29.30,10,9,4,23,12,29,0.54,7,Rain,188
2012-12-3,56,52,47,45,43,42,93,77,61,30.09,29.98,29.71,10,10,8,20,11,24,0.20,8,Rain,179
2012-12-4,58,53,47,55,52,46,100,92,83,30.02,29.84,29.68,10,8,2,28,11,35,0.60,8,Rain,199
2012-12-5,51,44,37,47,43,37,100,82,63,30.27,30.20,30.05,10,7,0,8,2,9,0.05,6,Fog-Rain,209
2012-12-6,49,42,34,42,38,34,100,86,71,30.30,30.27,30.25,10,7,0,13,7,15,T,6,Fog-Rain-Snow,191
2012-12-7,49,44,39,45,42,39,100,90,80,30.26,30.23,30.20,10,9,0,16,7,18,0.01,7,Fog-Rain,189
2012-12-8,47,42,37,43,40,37,100,91,82,30.38,30.31,30.25,10,9,1,7,3,9,0.01,7,Rain,197
2012-12-9,48,45,41,46,43,40,100,88,76,30.43,30.40,30.37,10,9,4,13,5,17,0.02,8,Rain,178
2012-12-10,51,48,45,48,47,45,100,92,83,30.44,30.37,30.16,10,6,0,10,3,20,0.00,8,Fog,185
2012-12-11,47,43,39,46,43,38,93,90,86,30.12,29.87,29.67,10,9,2,15,9,18,0.24,8,Rain,191
2012-12-12,47,42,36,41,39,36,100,88,76,30.03,29.90,29.77,10,10,9,10,5,14,0.06,7,Rain,215
2012-12-13,44,39,34,39,36,34,100,88,76,30.06,29.99,29.86,10,8,0,13,4,15,0.00,7,Fog,204
2012-12-14,48,40,32,41,37,34,100,88,76,30.01,29.93,29.86,10,10,6,13,6,16,0.12,6,Rain,164
2012-12-15,42,36,30,41,36,30,100,93,85,29.96,29.84,29.69,10,8,2,21,9,26,0.24,6,Rain,181
2012-12-16,52,46,39,48,41,37,100,86,71,29.90,29.64,29.31,10,8,3,37,16,48,0.79,7,Rain,189
2012-12-17,48,41,33,42,36,31,92,86,79,30.06,29.91,29.49,10,8,3,31,12,40,0.46,7,Rain-Snow,220
2012-12-18,38,35,31,36,33,31,100,96,92,30.13,30.08,30.04,10,6,1,15,8,17,0.39,7,Rain-Snow,178
2012-12-19,49,42,34,38,35,32,96,78,60,30.09,29.87,29.65,10,10,10,35,18,44,T,8,Rain,178
2012-12-20,50,42,34,40,36,33,100,76,52,29.85,29.75,29.59,10,8,6,29,10,36,1.11,7,Rain,206
2012-12-21,44,39,34,42,39,35,100,95,89,29.79,29.73,29.61,10,10,8,14,6,17,0.18,8,Rain,184
2012-12-22,47,43,39,40,38,36,100,86,71,29.83,29.68,29.56,10,10,7,26,12,33,0.20,7,Rain,183
2012-12-23,44,41,38,40,38,36,100,95,89,29.98,29.76,29.61,10,9,6,16,7,21,0.72,8,Rain,212
2012-12-24,47,41,34,40,38,35,100,86,71,30.23,30.11,29.97,10,10,10,13,7,16,0.04,7,Rain,180
2012-12-25,48,44,40,43,41,36,100,90,80,30.00,29.75,29.67,10,10,7,24,9,30,0.37,8,Rain,167
2012-12-26,49,43,37,43,40,37,100,88,76,30.08,29.88,29.72,10,10,10,13,7,15,0.01,7,Rain,202
2012-12-27,47,42,36,40,38,35,100,86,71,30.22,30.17,30.08,10,10,10,12,6,18,0.03,7,Rain,187
2012-12-28,45,40,35,39,36,33,100,85,70,30.17,30.13,30.11,10,10,5,10,4,16,T,7,Snow,112
2012-12-29,39,37,35,37,36,34,100,93,85,30.24,30.19,30.15,10,6,1,7,2,8,T,8,Snow,23
2012-12-30,42,38,34,37,36,34,100,90,79,30.31,30.26,30.20,10,6,2,10,5,13,0.00,8,,8
2012-12-31,42,36,30,36,34,29,100,85,70,30.39,30.31,30.26,10,9,5,9,5,12,T,6,Rain-Snow,101